Regional Weather Roundup
Issued by NWS State College, PA

Home | Current Version | Previous Version | Text Only | Print | Product List | Glossary Off
Versions: 1 2 3 4 5 6 7 8 9 10 11 12 13 14 15 16 17 18 19 20 21 22 23 24 25 26 27 28 29 30 31 32 33 34 35 36 37 38 39 40 41 42 43 44 45 46 47 48 49 50

000
ASUS41 KCTP 201703
RWRCTP

REGIONAL WEATHER ROUNDUP
NATIONAL WEATHER SERVICE STATE COLLEGE PA
100 PM EDT SUN MAY 20 2018

Note: "fair" indicates few or no clouds below 12,000 feet with no
significant weather and/or obstructions to visibility.

* = STATION THAT DOES NOT REPORT PRECIPITATION /E.G. RAIN...SNOW...ETC/
    THUNDER OR FOG.

PAZ002>004-007>009-013>016-020>023-029>032-201800-
WESTERN PENNSYLVANIA

CITY           SKY/WX    TMP DP  RH WIND       PRES   REMARKS
ERIE           CLOUDY    58  51  78 W6        30.14R
MEADVILLE      CLOUDY    57  55  93 N9        30.14R
FRANKLIN*      CLOUDY    66  57  72 VRB6      30.11S
NEW CASTLE     CLOUDY    67  61  81 NW6       30.13R
BEAVER COUNTY  CLOUDY    70  61  73 NW9       30.12R
BUTLER*        CLOUDY    67  60  78 VRB3      30.11S
PITTSBURGH INT PTSUNNY   69  63  81 N9        30.10R
PITTSBURGH     CLOUDY    71  62  73 NW8G22    30.09R
INDIANA*       CLOUDY    70  64  83 NW6G13    30.13R
LATROBE        CLOUDY    73  63  68 W9        30.09R
WASHINGTON CO* PTSUNNY   74  63  68 W8        30.12R
$$

PAZ004>006-010>012-017>019-024>028-033>037-041-042-045-046-049>053-201800-
CENTRAL PENNSYLVANIA

CITY           SKY/WX    TMP DP  RH WIND       PRES   REMARKS
BRADFORD       CLOUDY    63  55  75 NW9G20    30.09S
DUBOIS         CLOUDY    67  60  78 W8        30.08R
CLEARFIELD     CLOUDY    71  59  65 NW14      30.07R
JOHNSTOWN      CLOUDY    70  61  73 W13G22    30.10R
ALTOONA        PTSUNNY   75  62  64 W10       30.07R
STATE COLLEGE  CLOUDY    72  61  68 W10       30.04R
WILLIAMSPORT   CLOUDY    70  63  78 S3        29.99R
SELINSGROVE    CLOUDY    71  66  84 S5        30.01S
FT INDIANTOWN  PTSUNNY   75  70  85 SW5       30.00F
CAPITAL CITY   PTSUNNY   79  67  66 W9        30.00F
HARRISBURG     PTSUNNY   77  69  76 NW6       30.00S
YORK           PTSUNNY   80  64  58 W8G17     30.00F
$$

PAZ038>040-043-044-047-048-054-055-060>062-067>071-201800-
EASTERN PENNSYLVANIA

CITY           SKY/WX    TMP DP  RH WIND       PRES   REMARKS
SCRANTON       CLOUDY    69  63  81 SW9       29.98F
MOUNT POCONO   PTSUNNY   69  61  75 W17G25    30.01F
ALLENTOWN      CLOUDY    75  65  70 SW9       29.98F
QUAKERTOWN*    PTSUNNY   77  66  69 W8        30.00R
READING        CLOUDY    75  68  78 W9        29.99R
LANCASTER      PTSUNNY   76  69  79 W13       30.01S
COATESVILLE    DRIZZLE   72  66  83 NW14G24   30.03R
POTTSTOWN      LGT RAIN  74  66  76 W6        30.00S
BLUE BELL      PTSUNNY   77  66  69 W8        29.99S
DOYLESTOWN     PTSUNNY   77  65  66 W8        29.97F
WILLOW GROVE   NOT AVBL
NORTH PHILA    PTSUNNY   83  68  60 W8        29.98F
PHILADELPHIA   PTSUNNY   80  67  64 SW12      29.97F
$$



USA.gov is the U.S. government's official web portal to all federal, state and local government web resources and services.